FW5354 Weather Reports


Display with metric or nautical units.
time (UTC)temp
F
wind
direction
speed
MPH
gust
MPH
rain 1hr
in
rain 24hr
in
rain mn
in
humidity
%
barometer
mb
20260503173058 80 112 0.0 4.0 0.00 0.00 0.00 41 1020.3
20260503054605 59 158 0.0 0.0 0.00 0.00 0.00 75 1018.9
20260503053059 59 158 0.0 0.0 0.00 0.00 0.00 76 1018.9
20260503050055 60 158 0.0 0.0 0.00 0.02 0.00 76 1018.8
20260503044559 60 158 0.0 0.0 0.00 0.02 0.00 78 1018.6
20260503043054 61 158 0.0 0.0 0.00 0.02 0.00 78 1018.6
20260503040051 62 158 0.0 0.0 0.00 0.19 0.00 78 1018.7
20260503034550 62 158 0.0 0.0 0.00 0.19 0.00 78 1018.5
20260503033059 62 158 0.0 0.0 0.00 0.19 0.00 77 1018.1
20260503030043 63 158 0.0 0.0 0.00 0.25 0.00 77 1018.0
20260503024547 63 158 0.0 0.0 0.00 0.25 0.00 75 1017.9
20260503023038 64 158 0.0 0.0 0.00 0.25 0.00 73 1017.7
20260503020035 66 158 0.0 0.0 0.00 0.47 0.00 70 1017.5
20260503014540 67 158 0.0 0.0 0.00 0.47 0.00 67 1017.3
20260503013028 68 158 0.0 0.0 0.00 0.47 0.00 64 1017.1
20260503010021 71 158 0.0 0.0 0.00 0.54 0.00 55 1016.8
20260503004518 72 173 0.0 0.0 0.00 0.54 0.00 53 1016.6
20260503003017 73 166 0.0 0.0 0.00 0.54 0.00 52 1016.5
20260503000015 74 70 0.0 5.0 0.00 0.60 0.00 49 1016.3
20260502234513 75 121 1.0 6.0 0.00 0.60 0.00 47 1016.1
20260502233013 76 190 0.0 6.0 0.00 0.60 0.00 46 1016.2
20260502230012 76 139 0.0 5.0 0.00 0.74 0.00 47 1016.1
20260502224511 76 154 1.0 7.0 0.00 0.74 0.00 45 1016.2
20260502223010 76 146 1.0 7.0 0.00 0.74 0.00 46 1016.2
20260502220009 76 89 2.0 7.0 0.00 0.84 0.00 46 1016.3
20260502214508 76 240 0.0 7.0 0.00 0.84 0.00 46 1016.3
20260502213007 76 165 0.0 9.0 0.00 0.84 0.00 47 1016.5
20260502210007 76 245 2.0 6.0 0.00 1.01 0.00 46 1016.8
20260502204503 75 195 3.0 11.0 0.00 1.01 0.00 48 1017.0
20260502203002 75 129 0.0 8.0 0.00 1.01 0.00 50 1017.0
20260502200056 75 276 1.0 9.0 0.00 1.10 0.00 50 1017.4
20260502194555 74 122 0.0 6.0 0.00 1.10 0.00 50 1017.6
20260502193051 74 150 2.0 9.0 0.00 1.10 0.00 50 1017.8